sampling_time,wmo_synop_id,msc_id,stn_nam,stn_elev,lat,long,stn_typ,date_tm,rpt_typ,result_time,crnt_buoy_lat,crnt_buoy_lat_qa_summary,crnt_buoy_long,crnt_buoy_long_qa_summary,avg_air_temp_pst10mts,avg_air_temp_pst10mts_qa_summary,avg_sea_sfc_temp_pst10mts,avg_sea_sfc_temp_pst10mts_qa_summary,avg_batry_volt_pst10mts,avg_batry_volt_pst10mts_qa_summary,avg_solr_panl_crnt_pst10mts,avg_solr_panl_crnt_pst10mts_qa_summary,avg_wtr_lvl_snsr_volt_pst10mts,avg_wtr_lvl_snsr_volt_pst10mts_qa_summary,avg_wave_hgt_pst20mts,avg_wave_hgt_pst20mts_qa_summary,pk_wave_hgt_pst20mts,pk_wave_hgt_pst20mts_qa_summary,sig_wave_pd_pst20mts,sig_wave_pd_pst20mts_qa_summary,sig_wave_hgt_pst20mts,sig_wave_hgt_pst20mts_qa_summary,avg_max_wave_hgt_pst20mts,avg_max_wave_hgt_pst20mts_qa_summary,avg_max_wave_pd_pst20mts,avg_max_wave_pd_pst20mts_qa_summary,avg_wave_pd_pst20mts,avg_wave_pd_pst20mts_qa_summary,pk_wave_pd_pst20mts,pk_wave_pd_pst20mts_qa_summary,avg_stn_pres_pst10mts,avg_stn_pres_pst10mts_qa_summary,avg_wnd_spd_pst10mts,avg_wnd_spd_pst10mts_qa_summary,avg_wnd_dir_pst10mts,avg_wnd_dir_pst10mts_qa_summary,max_avg_wnd_spd_pst10mts,max_avg_wnd_spd_pst10mts_qa_summary,wnd_snsr_vert_disp,wnd_snsr_vert_disp_qa_summary,pres_tend_amt_pst3hrs,pres_tend_amt_pst3hrs_data_flag,pres_tend_char_pst3hrs,pres_tend_char_pst3hrs_data_flag,avg_mslp_pst10mts,avg_mslp_pst10mts_data_flag,avg_stn_pres_pst10mts_1,avg_stn_pres_pst10mts_1_qa_summary,avg_stn_pres_pst10mts_2,avg_stn_pres_pst10mts_2_qa_summary,avg_wnd_spd_pst10mts_1,avg_wnd_spd_pst10mts_1_qa_summary,avg_wnd_spd_pst10mts_2,avg_wnd_spd_pst10mts_2_qa_summary,avg_wnd_dir_pst10mts_1,avg_wnd_dir_pst10mts_1_qa_summary,avg_wnd_dir_pst10mts_2,avg_wnd_dir_pst10mts_2_qa_summary,max_avg_wnd_spd_pst10mts_1,max_avg_wnd_spd_pst10mts_1_qa_summary,max_avg_wnd_spd_pst10mts_2,max_avg_wnd_spd_pst10mts_2_qa_summary
2023-10-21T00:00:00Z,44489,9302001,WEST CHEDABUCTO BAY,0,45.48687,-61.14100000000001,18,2023-10-21T00:00:00.000Z,108,2023-10-21T00:02:47.294Z,45.48702,100,-61.1411,100,14.2,100,13.7,100,12.5,100,0.0,100,3.5,100,0.2,100,0.6,100,2.7,100,0.4,100,0.4,100,2.7,100,2.6,100,2.5,100,1015.9,100,9.0,100,161,100,11.9,100,5,100,-1.1,1,8,1,1015.9,1,1015.9,100,1015.8,100,9.0,100,9.0,100,161,100,156,100,11.9,100,11.9,100
2023-10-21T00:10:00Z,44489,9302001,WEST CHEDABUCTO BAY,0,45.48687,-61.14100000000001,18,2023-10-21T00:10:00.000Z,110,2023-10-21T00:12:49.651Z,45.48702,100,-61.1411,100,14.9,100,14.2,100,12.5,100,0.0,100,3.5,100,,-1,,-1,,-1,,-1,,-1,,-1,,-1,,-1,1016.0,100,12.6,100,168,100,15.1,100,5,100,-1.2,1,8,1,1016.0,1,1016.0,100,1015.9,100,12.6,100,11.5,100,168,100,162,100,15.1,100,14.4,100
2023-10-21T00:20:00Z,44489,9302001,WEST CHEDABUCTO BAY,0,45.48687,-61.14100000000001,18,2023-10-21T00:20:00.000Z,110,2023-10-21T00:23:03.207Z,45.48702,100,-61.14108,100,14.4,100,13.7,100,12.5,100,0.0,100,3.5,100,,-1,,-1,,-1,,-1,,-1,,-1,,-1,,-1,1015.9,100,13.7,100,175,100,17.3,100,5,100,-1.2,1,8,1,1015.9,1,1015.9,100,1015.8,100,13.7,100,13.0,100,175,100,170,100,17.3,100,16.6,100
2023-10-21T00:30:00Z,44489,9302001,WEST CHEDABUCTO BAY,0,45.48687,-61.14100000000001,18,2023-10-21T00:30:00.000Z,110,2023-10-21T00:35:02.971Z,45.486999999999995,100,-61.1411,100,14.4,100,13.7,100,12.5,100,0.0,100,3.5,100,,-1,,-1,,-1,,-1,,-1,,-1,,-1,,-1,1016.0,100,11.5,100,186,100,14.8,100,5,100,-1.0,1,8,1,1016.0,1,1016.0,100,1015.9,100,11.5,100,10.8,100,186,100,181,100,14.8,100,14.8,100
2023-10-21T00:40:00Z,44489,9302001,WEST CHEDABUCTO BAY,0,45.48687,-61.14100000000001,18,2023-10-21T00:40:00.000Z,110,2023-10-21T00:43:03.182Z,45.48702,100,-61.1411,100,14.4,100,13.7,100,12.4,100,0.0,100,3.5,100,,-1,,-1,,-1,,-1,,-1,,-1,,-1,,-1,1015.9,100,10.4,100,209,100,15.1,100,5,100,-0.9,1,8,1,1015.9,1,1015.9,100,1015.9,100,10.4,100,10.1,100,209,100,204,100,15.1,100,14.4,100
2023-10-21T00:50:00Z,44489,9302001,WEST CHEDABUCTO BAY,0,45.48687,-61.14100000000001,18,2023-10-21T00:50:00.000Z,110,2023-10-21T00:53:05.040Z,45.48702,100,-61.1411,100,14.3,100,13.7,100,12.4,100,0.0,100,3.5,100,,-1,,-1,,-1,,-1,,-1,,-1,,-1,,-1,1015.7,100,6.5,100,154,100,8.3,100,5,100,-1.1,1,8,1,1015.7,1,1015.7,100,1015.7,100,6.5,100,6.5,100,154,100,149,100,8.3,100,8.3,100
2023-10-21T01:00:00Z,44489,9302001,WEST CHEDABUCTO BAY,0,45.48687,-61.14100000000001,18,2023-10-21T01:00:00.000Z,108,2023-10-21T01:03:06.093Z,45.48702,100,-61.14108,100,14.3,100,13.7,100,12.4,100,0.0,100,3.5,100,0.2,100,0.5,100,2.8,100,0.3,100,0.4,100,2.7,100,2.6,100,2.4,100,1015.6,100,5.8,100,133,100,8.3,100,5,100,-1.3,1,8,1,1015.6,1,1015.6,100,1015.5,100,5.8,100,5.8,100,133,100,128,100,8.3,100,7.9,100
2023-10-21T01:10:00Z,44489,9302001,WEST CHEDABUCTO BAY,0,45.48687,-61.14100000000001,18,2023-10-21T01:10:00.000Z,110,2023-10-21T01:16:10.437Z,45.48703,100,-61.14112,100,14.2,100,13.7,100,12.4,100,0.0,100,3.5,100,,-1,,-1,,-1,,-1,,-1,,-1,,-1,,-1,1015.4,100,5.8,100,106,100,7.6,100,5,100,-1.4,1,8,1,1015.4,1,1015.4,100,1015.3,100,5.8,100,5.8,100,106,100,102,100,7.6,100,7.6,100
2023-10-21T01:20:00Z,44489,9302001,WEST CHEDABUCTO BAY,0,45.48687,-61.14100000000001,18,2023-10-21T01:20:00.000Z,110,2023-10-21T01:23:08.687Z,45.487,100,-61.1411,100,14.2,100,13.7,100,12.4,100,0.0,100,3.5,100,,-1,,-1,,-1,,-1,,-1,,-1,,-1,,-1,1015.3,100,6.5,100,115,100,8.3,100,5,100,-1.6,1,8,1,1015.3,1,1015.3,100,1015.2,100,6.5,100,6.5,100,115,100,111,100,8.3,100,7.9,100
2023-10-21T01:30:00Z,44489,9302001,WEST CHEDABUCTO BAY,0,45.48687,-61.14100000000001,18,2023-10-21T01:30:00.000Z,110,2023-10-21T01:33:18.974Z,45.48698,100,-61.1411,100,14.2,100,13.7,100,12.4,100,0.0,100,3.5,100,,-1,,-1,,-1,,-1,,-1,,-1,,-1,,-1,1015.1,100,7.6,100,129,100,10.8,100,5,100,-1.8,1,8,1,1015.1,1,1015.1,100,1015.1,100,7.6,100,7.2,100,129,100,125,100,10.8,100,11.2,100
2023-10-21T01:40:00Z,44489,9302001,WEST CHEDABUCTO BAY,0,45.48687,-61.14100000000001,18,2023-10-21T01:40:00.000Z,110,2023-10-21T01:43:25.600Z,45.486979999999996,100,-61.14106999999999,100,14.3,100,13.7,100,12.4,100,0.0,100,3.5,100,,-1,,-1,,-1,,-1,,-1,,-1,,-1,,-1,1014.8,100,4.3,100,164,100,7.9,100,5,100,-2.2,1,8,1,1014.8,1,1014.8,100,1014.7,100,4.3,100,4.3,100,164,100,158,100,7.9,100,7.6,100
2023-10-21T01:50:00Z,44489,9302001,WEST CHEDABUCTO BAY,0,45.48687,-61.14100000000001,18,2023-10-21T01:50:00.000Z,110,2023-10-21T01:53:20.209Z,45.48693,100,-61.14105,100,14.3,100,13.7,100,12.4,100,0.0,100,3.5,100,,-1,,-1,,-1,,-1,,-1,,-1,,-1,,-1,1014.6,100,6.5,100,203,100,8.6,100,5,100,-2.4,1,8,1,1014.6,1,1014.6,100,1014.5,100,6.5,100,6.1,100,203,100,199,100,8.6,100,7.9,100
2023-10-21T02:00:00Z,44489,9302001,WEST CHEDABUCTO BAY,0,45.48687,-61.14100000000001,18,2023-10-21T02:00:00.000Z,108,2023-10-21T02:03:26.737Z,45.48695,100,-61.14106999999999,100,14.3,100,13.7,100,12.4,100,0.0,100,3.5,100,0.2,100,0.6,100,2.9,100,0.4,100,0.5,100,2.9,100,2.8,100,2.5,100,1014.2,100,6.5,100,189,100,9.0,100,5,100,-2.7,1,8,1,1014.2,1,1014.2,100,1014.1,100,6.5,100,6.1,100,189,100,184,100,9.0,100,9.0,100
2023-10-21T02:10:00Z,44489,9302001,WEST CHEDABUCTO BAY,0,45.48687,-61.14100000000001,18,2023-10-21T02:10:00.000Z,110,2023-10-21T02:16:29.957Z,45.486999999999995,100,-61.14105,100,14.2,100,13.7,100,12.4,100,0.0,100,3.5,100,,-1,,-1,,-1,,-1,,-1,,-1,,-1,,-1,1014.0,100,14.0,100,200,100,18.7,100,5,100,-2.5,1,8,1,1014.0,1,1014.0,100,1014.0,100,14.0,100,13.7,100,200,100,195,100,18.7,100,18.0,100
2023-10-21T02:20:00Z,44489,9302001,WEST CHEDABUCTO BAY,0,45.48687,-61.14100000000001,18,2023-10-21T02:20:00.000Z,110,2023-10-21T02:23:27.284Z,45.486979999999996,100,-61.14105,100,14.2,100,13.7,100,12.4,100,0.0,100,3.5,100,,-1,,-1,,-1,,-1,,-1,,-1,,-1,,-1,1013.9,100,15.8,100,188,100,18.0,100,5,100,-2.7,1,8,1,1013.9,1,1013.9,100,1013.9,100,15.8,100,15.1,100,188,100,183,100,18.0,100,17.3,100
2023-10-21T02:30:00Z,44489,9302001,WEST CHEDABUCTO BAY,0,45.48687,-61.14100000000001,18,2023-10-21T02:30:00.000Z,110,2023-10-21T02:33:27.050Z,45.48702,100,-61.14103000000001,100,14.3,100,13.7,100,12.4,100,0.0,100,3.5,100,,-1,,-1,,-1,,-1,,-1,,-1,,-1,,-1,1013.8,100,12.2,100,182,100,15.1,100,5,100,-2.5,1,8,1,1013.8,1,1013.8,100,1013.8,100,12.2,100,11.2,100,182,100,177,100,15.1,100,14.4,100
2023-10-21T02:40:00Z,44489,9302001,WEST CHEDABUCTO BAY,0,45.48687,-61.14100000000001,18,2023-10-21T02:40:00.000Z,110,2023-10-21T02:43:42.396Z,45.486979999999996,100,-61.14103000000001,100,14.2,100,13.7,100,12.4,100,0.0,100,3.5,100,,-1,,-1,,-1,,-1,,-1,,-1,,-1,,-1,1013.9,100,10.1,100,159,100,12.2,100,5,100,-2.2,1,8,1,1013.9,1,1013.9,100,1013.8,100,10.1,100,9.0,100,159,100,153,100,12.2,100,12.2,100
2023-10-21T02:50:00Z,44489,9302001,WEST CHEDABUCTO BAY,0,45.48687,-61.14100000000001,18,2023-10-21T02:50:00.000Z,110,2023-10-21T02:53:36.312Z,45.48702,100,-61.1411,100,14.0,100,13.7,100,12.4,100,0.0,100,3.5,100,,-1,,-1,,-1,,-1,,-1,,-1,,-1,,-1,1013.6,100,11.5,100,132,100,14.8,100,5,100,-2.3,1,8,1,1013.6,1,1013.6,100,1013.5,100,11.5,100,10.8,100,132,100,126,100,14.8,100,14.8,100
2023-10-21T03:00:00Z,44489,9302001,WEST CHEDABUCTO BAY,0,45.48687,-61.14100000000001,18,2023-10-21T03:00:00.000Z,108,2023-10-21T03:02:39.697Z,45.48703,100,-61.1411,100,14.1,100,13.7,100,12.4,100,0.0,100,3.5,100,0.2,100,0.6,100,3.4,100,0.3,100,0.4,100,3.2,100,3.1,100,3.5,100,1013.3,100,13.7,100,140,100,17.3,100,5,100,-2.6,1,8,1,1013.3,1,1013.3,100,1013.3,100,13.7,100,12.6,100,140,100,135,100,17.3,100,15.8,100
2023-10-21T03:10:00Z,44489,9302001,WEST CHEDABUCTO BAY,0,45.48687,-61.14100000000001,18,2023-10-21T03:10:00.000Z,110,2023-10-21T03:15:41.661Z,45.486999999999995,100,-61.14108,100,14.0,100,13.7,100,12.4,100,0.0,100,3.5,100,,-1,,-1,,-1,,-1,,-1,,-1,,-1,,-1,1013.1,100,11.5,100,125,100,15.1,100,5,100,-2.9,1,8,1,1013.1,1,1013.1,100,1013.0,100,11.5,100,10.8,100,125,100,120,100,15.1,100,14.4,100
2023-10-21T03:20:00Z,44489,9302001,WEST CHEDABUCTO BAY,0,45.48687,-61.14100000000001,18,2023-10-21T03:20:00.000Z,110,2023-10-21T03:22:42.526Z,45.487,100,-61.14106999999999,100,14.0,100,13.7,100,12.4,100,0.0,100,3.5,100,,-1,,-1,,-1,,-1,,-1,,-1,,-1,,-1,1013.0,100,11.2,100,140,100,13.0,100,5,100,-2.9,1,8,1,1013.0,1,1013.0,100,1013.0,100,11.2,100,10.4,100,140,100,134,100,13.0,100,12.6,100
2023-10-21T03:30:00Z,44489,9302001,WEST CHEDABUCTO BAY,0,45.48687,-61.14100000000001,18,2023-10-21T03:30:00.000Z,110,2023-10-21T03:32:43.857Z,45.48697,100,-61.14106999999999,100,14.0,100,13.7,100,12.4,100,0.0,100,3.5,100,,-1,,-1,,-1,,-1,,-1,,-1,,-1,,-1,1012.8,100,11.5,100,137,100,13.3,100,5,100,-3.2,1,8,1,1012.8,1,1012.8,100,1012.7,100,11.5,100,10.8,100,137,100,132,100,13.3,100,12.6,100
2023-10-21T03:40:00Z,44489,9302001,WEST CHEDABUCTO BAY,0,45.48687,-61.14100000000001,18,2023-10-21T03:40:00.000Z,110,2023-10-21T03:42:49.335Z,45.486979999999996,100,-61.14108,100,14.1,100,13.7,100,12.4,100,0.0,100,3.5,100,,-1,,-1,,-1,,-1,,-1,,-1,,-1,,-1,1012.4,100,11.5,100,140,100,13.7,100,5,100,-3.5,1,8,1,1012.4,1,1012.4,100,1012.4,100,11.5,100,10.8,100,140,100,134,100,13.7,100,13.0,100
2023-10-21T03:50:00Z,44489,9302001,WEST CHEDABUCTO BAY,0,45.48687,-61.14100000000001,18,2023-10-21T03:50:00.000Z,110,2023-10-21T03:52:46.200Z,45.48698,100,-61.14103000000001,100,14.2,100,13.7,100,12.4,100,0.0,100,3.5,100,,-1,,-1,,-1,,-1,,-1,,-1,,-1,,-1,1012.1,100,12.6,100,144,100,14.4,100,5,100,-3.6,1,8,1,1012.1,1,1012.1,100,1012.1,100,12.6,100,11.9,100,144,100,138,100,14.4,100,13.7,100
2023-10-21T04:00:00Z,44489,9302001,WEST CHEDABUCTO BAY,0,45.48687,-61.14100000000001,18,2023-10-21T04:00:00.000Z,108,2023-10-21T04:02:47.545Z,45.487,100,-61.14108,100,14.3,100,13.7,100,12.4,100,0.0,100,3.5,100,0.2,100,0.4,100,3.8,100,0.2,100,0.3,100,3.7,100,3.2,100,10.5,100,1011.9,100,15.1,100,143,100,18.0,100,5,100,-3.7,1,8,1,1011.9,1,1011.9,100,1011.8,100,15.1,100,14.4,100,143,100,137,100,18.0,100,17.3,100
2023-10-21T04:10:00Z,44489,9302001,WEST CHEDABUCTO BAY,0,45.48687,-61.14100000000001,18,2023-10-21T04:10:00.000Z,110,2023-10-21T04:15:51.813Z,45.48697,100,-61.14108,100,14.3,100,13.7,100,12.4,100,0.0,100,3.5,100,,-1,,-1,,-1,,-1,,-1,,-1,,-1,,-1,1011.5,100,17.6,100,145,100,21.2,100,5,100,-3.8,1,8,1,1011.5,1,1011.5,100,1011.5,100,17.6,100,16.9,100,145,100,140,100,21.2,100,20.2,100
2023-10-21T04:20:00Z,44489,9302001,WEST CHEDABUCTO BAY,0,45.48687,-61.14100000000001,18,2023-10-21T04:20:00.000Z,110,2023-10-21T04:22:59.893Z,45.487,100,-61.1411,100,14.4,100,13.7,100,12.4,100,0.0,100,3.5,100,,-1,,-1,,-1,,-1,,-1,,-1,,-1,,-1,1011.2,100,18.7,100,146,100,24.8,100,5,100,-4.1,1,8,1,1011.2,1,1011.2,100,1011.1,100,18.7,100,18.0,100,146,100,141,100,24.8,100,23.8,100
2023-10-21T04:30:00Z,44489,9302001,WEST CHEDABUCTO BAY,0,45.48687,-61.14100000000001,18,2023-10-21T04:30:00.000Z,110,2023-10-21T04:33:04.684Z,45.486999999999995,100,-61.14106999999999,100,14.6,100,13.7,100,12.4,100,0.0,100,3.5,100,,-1,,-1,,-1,,-1,,-1,,-1,,-1,,-1,1010.7,100,22.7,100,150,100,28.8,100,5,100,-4.4,1,8,1,1010.7,1,1010.7,100,1010.6,100,22.7,100,21.6,100,150,100,145,100,28.8,100,28.1,100
2023-10-21T04:40:00Z,44489,9302001,WEST CHEDABUCTO BAY,0,45.48687,-61.14100000000001,18,2023-10-21T04:40:00.000Z,110,2023-10-21T04:43:02.588Z,45.48697,100,-61.14106999999999,100,14.4,100,13.7,100,12.4,100,0.0,100,3.5,100,,-1,,-1,,-1,,-1,,-1,,-1,,-1,,-1,1010.6,100,21.2,100,149,100,24.5,100,5,100,-4.2,1,8,1,1010.6,1,1010.6,100,1010.5,100,21.2,100,20.2,100,149,100,144,100,24.5,100,23.4,100
2023-10-21T04:50:00Z,44489,9302001,WEST CHEDABUCTO BAY,0,45.48687,-61.14100000000001,18,2023-10-21T04:50:00.000Z,110,2023-10-21T04:53:01.225Z,45.486999999999995,100,-61.14108,100,14.3,100,13.7,100,12.4,100,0.0,100,3.5,100,,-1,,-1,,-1,,-1,,-1,,-1,,-1,,-1,1010.4,100,20.5,100,153,100,24.8,100,5,100,-4.1,1,8,1,1010.4,1,1010.4,100,1010.4,100,20.5,100,19.4,100,153,100,148,100,24.8,100,23.4,100
2023-10-21T05:00:00Z,44489,9302001,WEST CHEDABUCTO BAY,0,45.48687,-61.14100000000001,18,2023-10-21T05:00:00.000Z,108,2023-10-21T05:03:08.869Z,45.486979999999996,100,-61.14103000000001,100,14.2,100,13.7,100,12.4,100,0.0,100,3.5,100,0.2,100,0.6,100,3.0,100,0.3,100,0.4,100,3.0,100,2.8,100,3.2,100,1010.1,100,21.2,100,154,100,25.6,100,5,100,-4.1,1,8,1,1010.1,1,1010.1,100,1010.0,100,21.2,100,20.5,100,154,100,149,100,25.6,100,24.1,100
2023-10-21T05:10:00Z,44489,9302001,WEST CHEDABUCTO BAY,0,45.48687,-61.14100000000001,18,2023-10-21T05:10:00.000Z,110,2023-10-21T05:16:05.429Z,45.48698,100,-61.14103000000001,100,14.3,100,13.7,100,12.4,100,0.0,100,3.5,100,,-1,,-1,,-1,,-1,,-1,,-1,,-1,,-1,1010.0,100,20.2,100,159,100,23.0,100,5,100,-4.1,1,8,1,1010.0,1,1010.0,100,1009.9,100,20.2,100,19.4,100,159,100,154,100,23.0,100,22.0,100
2023-10-21T05:20:00Z,44489,9302001,WEST CHEDABUCTO BAY,0,45.48687,-61.14100000000001,18,2023-10-21T05:20:00.000Z,110,2023-10-21T05:23:09.735Z,45.48697,100,-61.14100000000001,100,14.5,100,13.7,100,12.4,100,0.0,100,3.5,100,,-1,,-1,,-1,,-1,,-1,,-1,,-1,,-1,1010.0,100,19.8,100,170,100,23.4,100,5,100,-4.0,1,8,1,1010.0,1,1010.0,100,1009.9,100,19.8,100,18.7,100,170,100,165,100,23.4,100,23.0,100
2023-10-21T05:30:00Z,44489,9302001,WEST CHEDABUCTO BAY,0,45.48687,-61.14100000000001,18,2023-10-21T05:30:00.000Z,110,2023-10-21T05:33:16.347Z,45.48698,100,-61.14105,100,14.7,100,13.7,100,12.4,100,0.0,100,3.5,100,,-1,,-1,,-1,,-1,,-1,,-1,,-1,,-1,1009.5,100,22.7,100,181,100,28.1,100,5,100,-4.3,1,8,1,1009.5,1,1009.5,100,1009.5,100,22.7,100,22.0,100,181,100,176,100,28.1,100,26.6,100
2023-10-21T05:40:00Z,44489,9302001,WEST CHEDABUCTO BAY,0,45.48687,-61.14100000000001,18,2023-10-21T05:40:00.000Z,110,2023-10-21T05:43:21.357Z,45.48697,100,-61.14108,100,14.8,100,13.7,100,12.4,100,0.0,100,3.5,100,,-1,,-1,,-1,,-1,,-1,,-1,,-1,,-1,1009.3,100,24.1,100,181,100,27.4,100,5,100,-4.6,1,6,1,1009.3,1,1009.3,100,1009.2,100,24.1,100,23.4,100,181,100,176,100,27.4,100,27.0,100
2023-10-21T05:50:00Z,44489,9302001,WEST CHEDABUCTO BAY,0,45.48687,-61.14100000000001,18,2023-10-21T05:50:00.000Z,110,2023-10-21T05:53:17.946Z,45.48697,100,-61.1411,100,14.7,100,13.7,100,12.4,100,0.0,100,3.5,100,,-1,,-1,,-1,,-1,,-1,,-1,,-1,,-1,1009.2,100,22.7,100,184,100,27.0,100,5,100,-4.4,1,6,1,1009.2,1,1009.2,100,1009.1,100,22.7,100,21.6,100,184,100,179,100,27.0,100,26.6,100
2023-10-21T06:00:00Z,44489,9302001,WEST CHEDABUCTO BAY,0,45.48687,-61.14100000000001,18,2023-10-21T06:00:00.000Z,108,2023-10-21T06:03:23.079Z,45.487,100,-61.1411,100,14.9,100,13.7,100,12.4,100,0.0,100,3.5,100,0.3,100,0.7,100,3.2,100,0.4,100,0.5,100,3.3,100,2.9,100,3.0,100,1008.9,100,27.0,100,190,100,31.0,100,5,100,-4.4,1,6,1,1008.9,1,1008.9,100,1008.8,100,27.0,100,26.3,100,190,100,185,100,31.0,100,30.6,100
2023-10-21T06:10:00Z,44489,9302001,WEST CHEDABUCTO BAY,0,45.48687,-61.14100000000001,18,2023-10-21T06:10:00.000Z,110,2023-10-21T06:16:26.127Z,45.48702,100,-61.14112,100,14.8,100,13.7,100,12.4,100,0.0,100,3.5,100,,-1,,-1,,-1,,-1,,-1,,-1,,-1,,-1,1008.8,100,27.0,100,193,100,34.6,100,5,100,-4.3,1,6,1,1008.8,1,1008.8,100,1008.8,100,27.0,100,25.9,100,193,100,188,100,34.6,100,34.6,100
2023-10-21T06:20:00Z,44489,9302001,WEST CHEDABUCTO BAY,0,45.48687,-61.14100000000001,18,2023-10-21T06:20:00.000Z,110,2023-10-21T06:23:24.272Z,45.48702,100,-61.141119999999994,100,14.8,100,13.7,100,12.4,100,0.0,100,3.5,100,,-1,,-1,,-1,,-1,,-1,,-1,,-1,,-1,1008.8,100,25.9,100,197,100,29.9,100,5,100,-4.2,1,6,1,1008.8,1,1008.8,100,1008.7,100,25.9,100,24.8,100,197,100,192,100,29.9,100,28.4,100
2023-10-21T06:30:00Z,44489,9302001,WEST CHEDABUCTO BAY,0,45.48687,-61.14100000000001,18,2023-10-21T06:30:00.000Z,110,2023-10-21T06:33:33.251Z,45.48702,100,-61.14112,100,15.0,100,13.7,100,12.4,100,0.0,100,3.5,100,,-1,,-1,,-1,,-1,,-1,,-1,,-1,,-1,1008.5,100,25.2,100,201,100,29.5,100,5,100,-4.3,1,6,1,1008.5,1,1008.5,100,1008.5,100,25.2,100,24.1,100,201,100,196,100,29.5,100,29.2,100
2023-10-21T06:40:00Z,44489,9302001,WEST CHEDABUCTO BAY,0,45.48687,-61.14100000000001,18,2023-10-21T06:40:00.000Z,110,2023-10-21T06:43:35.812Z,45.48702,100,-61.141119999999994,100,15.0,100,13.7,100,12.4,100,0.0,100,3.5,100,,-1,,-1,,-1,,-1,,-1,,-1,,-1,,-1,1008.3,100,22.7,100,200,100,26.6,100,5,100,-4.2,1,6,1,1008.3,1,1008.3,100,1008.2,100,22.7,100,22.0,100,200,100,196,100,26.6,100,26.3,100
2023-10-21T06:50:00Z,44489,9302001,WEST CHEDABUCTO BAY,0,45.48687,-61.14100000000001,18,2023-10-21T06:50:00.000Z,110,2023-10-21T06:53:36.943Z,45.486999999999995,100,-61.1411,100,14.9,100,13.7,100,12.4,100,0.0,100,3.5,100,,-1,,-1,,-1,,-1,,-1,,-1,,-1,,-1,1008.0,100,21.2,100,195,100,24.5,100,5,100,-4.1,1,6,1,1008.0,1,1008.0,100,1008.0,100,21.2,100,20.5,100,195,100,190,100,24.5,100,23.4,100
2023-10-21T07:00:00Z,44489,9302001,WEST CHEDABUCTO BAY,0,45.48687,-61.14100000000001,18,2023-10-21T07:00:00.000Z,108,2023-10-21T07:02:39.074Z,45.48703,100,-61.14106999999999,100,14.9,100,13.7,100,12.4,100,0.0,100,3.5,100,0.3,100,0.9,100,3.4,100,0.5,100,0.6,100,3.3,100,3.0,100,3.7,100,1008.0,100,19.8,100,198,100,24.5,100,5,100,-3.9,1,6,1,1008.0,1,1008.0,100,1007.9,100,19.8,100,19.1,100,198,100,193,100,24.5,100,23.4,100
2023-10-21T07:10:00Z,44489,9302001,WEST CHEDABUCTO BAY,0,45.48687,-61.14100000000001,18,2023-10-21T07:10:00.000Z,110,2023-10-21T07:15:40.875Z,45.48705,100,-61.14115,100,15.0,100,13.7,100,12.4,100,0.0,100,3.5,100,,-1,,-1,,-1,,-1,,-1,,-1,,-1,,-1,1007.8,100,19.8,100,201,100,24.1,100,5,100,-3.7,1,6,1,1007.8,1,1007.8,100,1007.8,100,19.8,100,19.1,100,201,100,196,100,24.1,100,23.4,100
2023-10-21T07:20:00Z,44489,9302001,WEST CHEDABUCTO BAY,0,45.48687,-61.14100000000001,18,2023-10-21T07:20:00.000Z,110,2023-10-21T07:22:38.604Z,45.48702,100,-61.141169999999995,100,14.9,100,13.7,100,12.4,100,0.0,100,3.5,100,,-1,,-1,,-1,,-1,,-1,,-1,,-1,,-1,1007.6,100,16.2,100,189,100,20.5,100,5,100,-3.6,1,7,1,1007.6,1,1007.6,100,1007.5,100,16.2,100,15.5,100,189,100,184,100,20.5,100,19.8,100
2023-10-21T07:30:00Z,44489,9302001,WEST CHEDABUCTO BAY,0,45.48687,-61.14100000000001,18,2023-10-21T07:30:00.000Z,110,2023-10-21T07:32:53.188Z,45.48702,100,-61.14117,100,14.8,100,13.7,100,12.4,100,0.0,100,3.5,100,,-1,,-1,,-1,,-1,,-1,,-1,,-1,,-1,1007.5,100,13.3,100,181,100,15.5,100,5,100,-3.2,1,6,1,1007.5,1,1007.5,100,1007.4,100,13.3,100,12.6,100,181,100,176,100,15.5,100,14.8,100
2023-10-21T07:40:00Z,44489,9302001,WEST CHEDABUCTO BAY,0,45.48687,-61.14100000000001,18,2023-10-21T07:40:00.000Z,110,2023-10-21T07:42:55.361Z,45.48702,100,-61.141130000000004,100,14.8,100,13.7,100,12.4,100,0.0,100,3.5,100,,-1,,-1,,-1,,-1,,-1,,-1,,-1,,-1,1007.3,100,11.9,100,180,100,14.8,100,5,100,-3.3,1,6,1,1007.3,1,1007.3,100,1007.3,100,11.9,100,11.2,100,180,100,175,100,14.8,100,14.0,100
2023-10-21T07:50:00Z,44489,9302001,WEST CHEDABUCTO BAY,0,45.48687,-61.14100000000001,18,2023-10-21T07:50:00.000Z,110,2023-10-21T07:52:56.623Z,45.48702,100,-61.14113,100,14.8,100,13.7,100,12.3,100,0.0,100,3.5,100,,-1,,-1,,-1,,-1,,-1,,-1,,-1,,-1,1007.2,100,12.2,100,180,100,14.4,100,5,100,-3.2,1,6,1,1007.2,1,1007.2,100,1007.2,100,12.2,100,11.5,100,180,100,175,100,14.4,100,13.7,100
2023-10-21T08:00:00Z,44489,9302001,WEST CHEDABUCTO BAY,0,45.48687,-61.14100000000001,18,2023-10-21T08:00:00.000Z,108,2023-10-21T08:02:51.705Z,45.487,100,-61.14108,100,14.8,100,13.7,100,12.4,100,0.0,100,3.5,100,0.3,100,0.8,100,3.6,100,0.5,100,0.6,100,3.6,100,3.2,100,3.9,100,1007.1,100,13.0,100,183,100,16.2,100,5,100,-3.0,1,6,1,1007.1,1,1007.1,100,1007.0,100,13.0,100,12.2,100,183,100,178,100,16.2,100,15.5,100
2023-10-21T08:10:00Z,44489,9302001,WEST CHEDABUCTO BAY,0,45.48687,-61.14100000000001,18,2023-10-21T08:10:00.000Z,110,2023-10-21T08:15:55.134Z,45.486999999999995,100,-61.14108,100,14.7,100,13.7,100,12.4,100,0.0,100,3.5,100,,-1,,-1,,-1,,-1,,-1,,-1,,-1,,-1,1006.8,100,11.2,100,172,100,16.2,100,5,100,-3.2,1,6,1,1006.8,1,1006.8,100,1006.7,100,11.2,100,10.4,100,172,100,167,100,16.2,100,15.5,100
2023-10-21T08:20:00Z,44489,9302001,WEST CHEDABUCTO BAY,0,45.48687,-61.14100000000001,18,2023-10-21T08:20:00.000Z,110,2023-10-21T08:22:59.441Z,45.487,100,-61.14106999999999,100,14.4,100,13.7,100,12.4,100,0.0,100,3.5,100,,-1,,-1,,-1,,-1,,-1,,-1,,-1,,-1,1006.5,100,4.7,100,117,100,6.5,100,5,100,-3.5,1,6,1,1006.5,1,1006.5,100,1006.4,100,4.7,100,4.3,100,117,100,111,100,6.5,100,6.1,100
2023-10-21T08:30:00Z,44489,9302001,WEST CHEDABUCTO BAY,0,45.48687,-61.14100000000001,18,2023-10-21T08:30:00.000Z,110,2023-10-21T08:33:05.354Z,45.486999999999995,100,-61.14108,100,14.4,100,13.8,100,12.4,100,0.0,100,3.5,100,,-1,,-1,,-1,,-1,,-1,,-1,,-1,,-1,1006.3,100,7.2,100,132,100,9.7,100,5,100,-3.3,1,8,1,1006.3,1,1006.3,100,1006.2,100,7.2,100,7.2,100,132,100,127,100,9.7,100,9.7,100
2023-10-21T08:40:00Z,44489,9302001,WEST CHEDABUCTO BAY,0,45.48687,-61.14100000000001,18,2023-10-21T08:40:00.000Z,110,2023-10-21T08:43:17.498Z,45.487,100,-61.14108,100,14.3,100,13.8,100,12.3,100,0.0,100,3.5,100,,-1,,-1,,-1,,-1,,-1,,-1,,-1,,-1,1005.7,100,12.2,100,147,100,16.2,100,5,100,-3.6,1,8,1,1005.7,1,1005.7,100,1005.7,100,12.2,100,11.9,100,147,100,142,100,16.2,100,14.8,100
2023-10-21T08:50:00Z,44489,9302001,WEST CHEDABUCTO BAY,0,45.48687,-61.14100000000001,18,2023-10-21T08:50:00.000Z,110,2023-10-21T08:53:12.912Z,45.486999999999995,100,-61.14112,100,14.4,100,13.7,100,12.3,100,0.0,100,3.5,100,,-1,,-1,,-1,,-1,,-1,,-1,,-1,,-1,1005.3,100,15.8,100,141,100,18.7,100,5,100,-3.9,1,8,1,1005.3,1,1005.3,100,1005.2,100,15.8,100,14.8,100,141,100,136,100,18.7,100,18.0,100
2023-10-21T09:00:00Z,44489,9302001,WEST CHEDABUCTO BAY,0,45.48687,-61.14100000000001,18,2023-10-21T09:00:00.000Z,108,2023-10-21T09:03:17.088Z,45.48702,100,-61.141119999999994,100,14.3,100,13.7,100,12.3,100,0.0,100,3.5,100,0.3,100,0.7,100,3.9,100,0.4,100,0.5,100,4.1,100,3.3,100,4.5,100,1004.7,100,15.1,100,118,100,17.3,100,5,100,-4.2,1,8,1,1004.7,1,1004.7,100,1004.6,100,15.1,100,14.0,100,118,100,113,100,17.3,100,15.8,100
2023-10-21T09:10:00Z,44489,9302001,WEST CHEDABUCTO BAY,0,45.48687,-61.14100000000001,18,2023-10-21T09:10:00.000Z,110,2023-10-21T09:16:13.493Z,45.486999999999995,100,-61.14112,100,14.3,100,13.7,100,12.4,100,0.0,100,3.5,100,,-1,,-1,,-1,,-1,,-1,,-1,,-1,,-1,1004.6,100,16.9,100,124,100,20.2,100,5,100,-4.2,1,8,1,1004.6,1,1004.6,100,1004.6,100,16.9,100,15.8,100,124,100,119,100,20.2,100,19.4,100